Farmville, Virginia, United States (23901)
Lat: 37.30N, Lon: 78.39W
Wx Zone: VAZ060
Local Info
Past Weather Observations for Today

NOTE: This archive is for the closest National Weather Service station to Farmville. Information may differ from the station used for current weather conditions.

Click here for Long-term Archive

Time Weather Temperature Dewpoint Humidity Pressure Winds Precip Visibility
08:35
Clear
28°F / -2°C 25°F / -4°C 86% 30.54 in
(1034 mb)
S 3.5 mph
(S 6 kph)
- 10SM
08:15
Clear
25°F / -4°C 23°F / -5°C 93% 30.54 in
(1034 mb)
Calm - 10SM
07:55
Clear
21°F / -6°C 21°F / -6°C 100% 30.54 in
(1034 mb)
Calm - 10SM
07:35
Clear
18°F / -8°C 18°F / -8°C 100% 30.54 in
(1034 mb)
Calm - 10SM
07:15
Clear
16°F / -9°C 14°F / -10°C 93% 30.54 in
(1034 mb)
Calm - 10SM
06:55
Clear
16°F / -9°C 16°F / -9°C 100% 30.54 in
(1034 mb)
Calm - 10SM
06:35
Clear
16°F / -9°C 12°F / -11°C 86% 30.54 in
(1034 mb)
Calm - 10SM
06:15
Clear
16°F / -9°C 14°F / -10°C 93% 30.54 in
(1034 mb)
Calm - 10SM
05:55
Clear
16°F / -9°C 14°F / -10°C 93% 30.54 in
(1034 mb)
Calm - 10SM
05:35
Clear
16°F / -9°C 14°F / -10°C 93% 30.54 in
(1034 mb)
Calm - 10SM
05:15
Clear
16°F / -9°C 12°F / -11°C 86% 30.54 in
(1034 mb)
S 3.5 mph
(S 6 kph)
- 10SM
04:55
Clear
16°F / -9°C 14°F / -10°C 93% 30.54 in
(1034 mb)
Calm - 10SM
04:35
Clear
16°F / -9°C 14°F / -10°C 93% 30.54 in
(1034 mb)
Calm - 10SM
04:15
Clear
16°F / -9°C 12°F / -11°C 86% 30.54 in
(1034 mb)
S 3.5 mph
(S 6 kph)
- 10SM
03:55
Clear
18°F / -8°C 12°F / -11°C 79% 30.54 in
(1034 mb)
Calm - 10SM
03:35
Clear
18°F / -8°C 14°F / -10°C 86% 30.54 in
(1034 mb)
Calm - 10SM
03:15
Clear
18°F / -8°C 14°F / -10°C 86% 30.54 in
(1034 mb)
SE 3.5 mph
(SE 6 kph)
- 10SM
02:55
Clear
18°F / -8°C 14°F / -10°C 86% 30.54 in
(1034 mb)
Calm - 10SM
02:35
Clear
18°F / -8°C 14°F / -10°C 86% 30.54 in
(1034 mb)
Calm - 10SM
02:15
Clear
19°F / -7°C 16°F / -9°C 86% 30.57 in
(1035 mb)
Calm - 10SM
01:55
Clear
19°F / -7°C 14°F / -10°C 79% 30.54 in
(1034 mb)
Calm - 10SM
01:35
Clear
18°F / -8°C 14°F / -10°C 86% 30.54 in
(1034 mb)
Calm - 10SM
01:15
Clear
19°F / -7°C 12°F / -11°C 73% 30.54 in
(1034 mb)
Calm - 10SM
00:55
Clear
21°F / -6°C 12°F / -11°C 68% 30.54 in
(1034 mb)
Calm - 10SM
00:35
Clear
21°F / -6°C 14°F / -10°C 74% 30.54 in
(1034 mb)
Calm - 10SM
00:15
Clear
21°F / -6°C 12°F / -11°C 68% 30.54 in
(1034 mb)
Calm - 10SM
Time Weather Temperature Dewpoint Humidity Pressure Winds Precip Visibility


Weather for websites

WeatherForYou.com, LLC is not responsible for any damages or problems caused by this service. Current weather conditions are obtained from the closest station including government and personal stations which may have varying degrees of accuracy. Weather forecasts are derived from the NOAA NDFD. Like all things, this site belongs to Jesus Christ... He just trusts me to maintain it. If you have any questions or comments email webmaster@weatherforyou.com

Copyright © 2014, WeatherForYou.com LLC. All rights reserved.